Year,Month,Day,Hour,Minute,Value (Times are PST for temperature in C)
2008,03,18,00,00,5.20
2008,03,18,00,01,5.10
2008,03,18,00,03,5.10
2008,03,18,00,05,5.10
2008,03,18,00,06,5.10
2008,03,18,00,07,5.10
2008,03,18,00,08,5.10
2008,03,18,00,09,5.00
2008,03,18,00,10,5.00
2008,03,18,00,11,4.90
2008,03,18,00,13,4.90
2008,03,18,00,15,4.90
2008,03,18,00,16,4.80
2008,03,18,00,17,4.80
2008,03,18,00,18,4.80
2008,03,18,00,19,4.80
2008,03,18,00,20,4.80
2008,03,18,00,21,4.70
2008,03,18,00,22,4.70
2008,03,18,00,23,4.70
2008,03,18,00,24,4.70
2008,03,18,00,25,4.70
2008,03,18,00,26,4.70
2008,03,18,00,27,4.70
2008,03,18,00,28,4.60
2008,03,18,00,29,4.60
2008,03,18,00,30,4.60
2008,03,18,00,32,4.60
2008,03,18,00,33,4.60
2008,03,18,00,34,4.50
2008,03,18,00,35,4.50
2008,03,18,00,36,4.50
2008,03,18,00,38,4.40
2008,03,18,00,39,4.40
2008,03,18,00,40,4.40
2008,03,18,00,41,4.40
2008,03,18,00,42,4.40
2008,03,18,00,43,4.40
2008,03,18,00,44,4.40
2008,03,18,00,45,4.30
2008,03,18,00,46,4.30
2008,03,18,00,47,4.30
2008,03,18,00,48,4.30
2008,03,18,00,49,4.30
2008,03,18,00,50,4.30
2008,03,18,00,51,4.30
2008,03,18,00,52,4.30
2008,03,18,00,53,4.30
2008,03,18,00,54,4.30
2008,03,18,00,55,4.20
2008,03,18,00,56,4.20
2008,03,18,00,57,4.20
2008,03,18,00,58,4.20
2008,03,18,00,59,4.20
2008,03,18,01,00,4.10
2008,03,18,01,01,4.10
2008,03,18,01,02,4.10
2008,03,18,01,03,4.10
2008,03,18,01,05,4.10
2008,03,18,01,06,4.10
2008,03,18,01,07,4.00
2008,03,18,01,08,4.00
2008,03,18,01,09,4.00
2008,03,18,01,10,4.00
2008,03,18,01,11,4.00
2008,03,18,01,12,4.00
2008,03,18,01,13,4.00
2008,03,18,01,15,4.10
2008,03,18,01,17,4.10
2008,03,18,01,18,4.10
2008,03,18,01,20,4.10
2008,03,18,01,21,4.10
2008,03,18,01,22,4.10
2008,03,18,01,23,4.10
2008,03,18,01,24,4.10
2008,03,18,01,25,4.10
2008,03,18,01,26,4.10
2008,03,18,01,27,4.10
2008,03,18,01,28,4.10
2008,03,18,01,29,4.10
2008,03,18,01,30,4.10
2008,03,18,01,31,4.10
2008,03,18,01,32,4.10
2008,03,18,01,33,4.10
2008,03,18,01,34,4.10
2008,03,18,01,35,4.10
2008,03,18,01,36,4.10
2008,03,18,01,37,4.10
2008,03,18,01,38,4.10
2008,03,18,01,39,4.10
2008,03,18,01,40,4.10
2008,03,18,01,41,4.10
2008,03,18,01,42,4.10
2008,03,18,01,43,4.10
2008,03,18,01,44,4.10
2008,03,18,01,46,4.10
2008,03,18,01,47,4.00
2008,03,18,01,48,4.00
2008,03,18,01,49,3.90
2008,03,18,01,50,3.90
2008,03,18,01,51,3.90
2008,03,18,01,52,3.90
2008,03,18,01,53,3.80
2008,03,18,01,54,3.80
2008,03,18,01,55,3.80
2008,03,18,01,56,3.80
2008,03,18,01,57,3.80
2008,03,18,01,58,3.80
2008,03,18,01,59,3.80
2008,03,18,02,00,3.70
2008,03,18,02,01,3.70
2008,03,18,02,02,3.70
2008,03,18,02,03,3.70
2008,03,18,02,04,3.70
2008,03,18,02,05,3.70
2008,03,18,02,06,3.60
2008,03,18,02,07,3.70
2008,03,18,02,08,3.60
2008,03,18,02,09,3.60
2008,03,18,02,10,3.60
2008,03,18,02,11,3.60
2008,03,18,02,12,3.60
2008,03,18,02,13,3.60
2008,03,18,02,14,3.60
2008,03,18,02,15,3.60
2008,03,18,02,16,3.60
2008,03,18,02,17,3.60
2008,03,18,02,18,3.50
2008,03,18,02,19,3.50
2008,03,18,02,20,3.50
2008,03,18,02,21,3.50
2008,03,18,02,22,3.50
2008,03,18,02,23,3.50
2008,03,18,02,25,3.40
2008,03,18,02,26,3.40
2008,03,18,02,27,3.50
2008,03,18,02,28,3.40
2008,03,18,02,29,3.40
2008,03,18,02,30,3.40
2008,03,18,02,31,3.50
2008,03,18,02,33,3.40
2008,03,18,02,35,3.40
2008,03,18,02,36,3.40
2008,03,18,02,37,3.40
2008,03,18,02,38,3.40
2008,03,18,02,39,3.40
2008,03,18,02,40,3.40
2008,03,18,02,41,3.40
2008,03,18,02,42,3.40
2008,03,18,02,43,3.40
2008,03,18,02,44,3.40
2008,03,18,02,45,3.40
2008,03,18,02,46,3.40
2008,03,18,02,47,3.30
2008,03,18,02,49,3.30
2008,03,18,02,50,3.30
2008,03,18,02,51,3.30
2008,03,18,02,52,3.30
2008,03,18,02,53,3.30
2008,03,18,02,54,3.30
2008,03,18,02,55,3.30
2008,03,18,02,56,3.30
2008,03,18,02,57,3.30
2008,03,18,02,58,3.30
2008,03,18,02,59,3.30
2008,03,18,03,00,3.30
2008,03,18,03,01,3.30
2008,03,18,03,03,3.20
2008,03,18,03,04,3.30
2008,03,18,03,05,3.30
2008,03,18,03,06,3.20
2008,03,18,03,07,3.30
2008,03,18,03,08,3.20
2008,03,18,03,09,3.30
2008,03,18,03,10,3.20
2008,03,18,03,11,3.20
2008,03,18,03,12,3.20
2008,03,18,03,13,3.20
2008,03,18,03,14,3.20
2008,03,18,03,15,3.20
2008,03,18,03,16,3.20
2008,03,18,03,17,3.20
2008,03,18,03,18,3.20
2008,03,18,03,19,3.20
2008,03,18,03,20,3.20
2008,03,18,03,21,3.20
2008,03,18,03,22,3.20
2008,03,18,03,23,3.20
2008,03,18,03,24,3.20
2008,03,18,03,25,3.20
2008,03,18,03,26,3.20
2008,03,18,03,27,3.20
2008,03,18,03,28,3.20
2008,03,18,03,29,3.20
2008,03,18,03,30,3.20
2008,03,18,03,31,3.20
2008,03,18,03,32,3.20
2008,03,18,03,33,3.20
2008,03,18,03,34,3.30
2008,03,18,03,35,3.30
2008,03,18,03,36,3.30
2008,03,18,03,37,3.30
2008,03,18,03,38,3.30
2008,03,18,03,39,3.30
2008,03,18,03,40,3.30
2008,03,18,03,41,3.30
2008,03,18,03,42,3.30
2008,03,18,03,43,3.30
2008,03,18,03,44,3.30
2008,03,18,03,45,3.30
2008,03,18,03,46,3.30
2008,03,18,03,47,3.30
2008,03,18,03,48,3.30
2008,03,18,03,49,3.30
2008,03,18,03,50,3.30
2008,03,18,03,51,3.30
2008,03,18,03,52,3.30
2008,03,18,03,53,3.30
2008,03,18,03,54,3.30
2008,03,18,03,55,3.30
2008,03,18,03,56,3.30
2008,03,18,03,57,3.20
2008,03,18,03,59,3.20
2008,03,18,04,00,3.20
2008,03,18,04,01,3.20
2008,03,18,04,02,3.20
2008,03,18,04,03,3.20
2008,03,18,04,04,3.20
2008,03,18,04,05,3.20
2008,03,18,04,06,3.20
2008,03,18,04,07,3.20
2008,03,18,04,08,3.20
2008,03,18,04,09,3.20
2008,03,18,04,10,3.20
2008,03,18,04,11,3.20
2008,03,18,04,12,3.20
2008,03,18,04,13,3.20
2008,03,18,04,14,3.20
2008,03,18,04,15,3.20
2008,03,18,04,16,3.20
2008,03,18,04,17,3.20
2008,03,18,04,18,3.20
2008,03,18,04,19,3.20
2008,03,18,04,20,3.20
2008,03,18,04,21,3.20
2008,03,18,04,22,3.20
2008,03,18,04,23,3.20
2008,03,18,04,24,3.20
2008,03,18,04,25,3.20
2008,03,18,04,26,3.10
2008,03,18,04,27,3.10
2008,03,18,04,28,3.10
2008,03,18,04,29,3.10
2008,03,18,04,30,3.10
2008,03,18,04,31,3.10
2008,03,18,04,32,3.10
2008,03,18,04,33,3.10
2008,03,18,04,34,3.10
2008,03,18,04,35,3.10
2008,03,18,04,36,3.10
2008,03,18,04,37,3.10
2008,03,18,04,38,3.10
2008,03,18,04,39,3.10
2008,03,18,04,40,3.10
2008,03,18,04,41,3.10
2008,03,18,04,42,3.10
2008,03,18,04,44,3.10
2008,03,18,04,45,3.10
2008,03,18,04,46,3.10
2008,03,18,04,47,3.10
2008,03,18,04,48,3.10
2008,03,18,04,49,3.10
2008,03,18,04,50,3.10
2008,03,18,04,51,3.10
2008,03,18,04,52,3.10
2008,03,18,04,53,3.10
2008,03,18,04,54,3.10
2008,03,18,04,55,3.00
2008,03,18,04,56,3.00
2008,03,18,04,57,3.00
2008,03,18,04,58,3.00
2008,03,18,04,59,3.00
2008,03,18,05,00,3.00
2008,03,18,05,01,3.00
2008,03,18,05,02,2.90
2008,03,18,05,03,2.90
2008,03,18,05,04,2.90
2008,03,18,05,05,2.90
2008,03,18,05,06,2.90
2008,03,18,05,07,2.90
2008,03,18,05,08,2.90
2008,03,18,05,09,2.90
2008,03,18,05,10,2.80
2008,03,18,05,11,2.80
2008,03,18,05,12,2.80
2008,03,18,05,13,2.80
2008,03,18,05,14,2.80
2008,03,18,05,15,2.80
2008,03,18,05,16,2.80
2008,03,18,05,17,2.80
2008,03,18,05,18,2.80
2008,03,18,05,19,2.80
2008,03,18,05,20,2.80
2008,03,18,05,21,2.80
2008,03,18,05,22,2.80
2008,03,18,05,23,2.80
2008,03,18,05,25,2.70
2008,03,18,05,26,2.70
2008,03,18,05,27,2.70
2008,03,18,05,28,2.70
2008,03,18,05,29,2.70
2008,03,18,05,30,2.70
2008,03,18,05,31,2.70
2008,03,18,05,32,2.70
2008,03,18,05,33,2.70
2008,03,18,05,34,2.70
2008,03,18,05,35,2.60
2008,03,18,05,36,2.60
2008,03,18,05,37,2.70
2008,03,18,05,38,2.60
2008,03,18,05,39,2.60
2008,03,18,05,40,2.70
2008,03,18,05,41,2.60
2008,03,18,05,42,2.60
2008,03,18,05,43,2.60
2008,03,18,05,44,2.60
2008,03,18,05,45,2.60
2008,03,18,05,46,2.60
2008,03,18,05,47,2.60
2008,03,18,05,48,2.60
2008,03,18,05,49,2.60
2008,03,18,05,50,2.60
2008,03,18,05,51,2.60
2008,03,18,05,52,2.60
2008,03,18,05,53,2.60
2008,03,18,05,54,2.60
2008,03,18,05,55,2.60
2008,03,18,05,56,2.60
2008,03,18,05,57,2.60
2008,03,18,05,58,2.60
2008,03,18,06,00,2.60
2008,03,18,06,01,2.50
2008,03,18,06,02,2.50
2008,03,18,06,03,2.50
2008,03,18,06,04,2.50
2008,03,18,06,05,2.50
2008,03,18,06,06,2.50
2008,03,18,06,07,2.50
2008,03,18,06,08,2.50
2008,03,18,06,09,2.50
2008,03,18,06,10,2.50
2008,03,18,06,11,2.40
2008,03,18,06,12,2.40
2008,03,18,06,13,2.40
2008,03,18,06,14,2.40
2008,03,18,06,15,2.40
2008,03,18,06,16,2.40
2008,03,18,06,17,2.40
2008,03,18,06,18,2.40
2008,03,18,06,19,2.40
2008,03,18,06,20,2.40
2008,03,18,06,21,2.40
2008,03,18,06,22,2.40
2008,03,18,06,23,2.40
2008,03,18,06,24,2.40
2008,03,18,06,25,2.40
2008,03,18,06,27,2.40
2008,03,18,06,28,2.40
2008,03,18,06,29,2.40
2008,03,18,06,31,2.40
2008,03,18,06,32,2.40
2008,03,18,06,33,2.40
2008,03,18,06,34,2.40
2008,03,18,06,35,2.40
2008,03,18,06,36,2.40
2008,03,18,06,37,2.40
2008,03,18,06,39,2.40
2008,03,18,06,40,2.40
2008,03,18,06,41,2.40
2008,03,18,06,42,2.40
2008,03,18,06,43,2.40
2008,03,18,06,44,2.40
2008,03,18,06,45,2.40
2008,03,18,06,46,2.40
2008,03,18,06,47,2.40
2008,03,18,06,48,2.40
2008,03,18,06,49,2.40
2008,03,18,06,50,2.40
2008,03,18,06,51,2.30
2008,03,18,06,52,2.40
2008,03,18,06,53,2.40
2008,03,18,06,54,2.40
2008,03,18,06,55,2.40
2008,03,18,06,56,2.40
2008,03,18,06,57,2.40
2008,03,18,06,58,2.40
2008,03,18,06,59,2.40
2008,03,18,07,00,2.40
2008,03,18,07,01,2.40
2008,03,18,07,02,2.40
2008,03,18,07,03,2.40
2008,03,18,07,04,2.40
2008,03,18,07,05,2.40
2008,03,18,07,06,2.40
2008,03,18,07,07,2.40
2008,03,18,07,08,2.40
2008,03,18,07,09,2.40
2008,03,18,07,10,2.40
2008,03,18,07,11,2.40
2008,03,18,07,12,2.40
2008,03,18,07,13,2.40
2008,03,18,07,14,2.40
2008,03,18,07,15,2.40
2008,03,18,07,16,2.40
2008,03,18,07,17,2.40
2008,03,18,07,18,2.40
2008,03,18,07,19,2.40
2008,03,18,07,20,2.50
2008,03,18,07,21,2.40
2008,03,18,07,22,2.40
2008,03,18,07,23,2.50
2008,03,18,07,24,2.40
2008,03,18,07,25,2.40
2008,03,18,07,26,2.50
2008,03,18,07,28,2.40
2008,03,18,07,29,2.50
2008,03,18,07,30,2.50
2008,03,18,07,31,2.40
2008,03,18,07,32,2.50
2008,03,18,07,33,2.50
2008,03,18,07,34,2.50
2008,03,18,07,35,2.50
2008,03,18,07,36,2.50
2008,03,18,07,37,2.50
2008,03,18,07,38,2.50
2008,03,18,07,39,2.50
2008,03,18,07,40,2.50
2008,03,18,07,41,2.50
2008,03,18,07,42,2.50
2008,03,18,07,43,2.50
2008,03,18,07,44,2.50
2008,03,18,07,45,2.60
2008,03,18,07,46,2.60
2008,03,18,07,47,2.60
2008,03,18,07,48,2.60
2008,03,18,07,49,2.60
2008,03,18,07,50,2.60
2008,03,18,07,51,2.60
2008,03,18,07,52,2.60
2008,03,18,07,53,2.60
2008,03,18,07,54,2.60
2008,03,18,07,55,2.60
2008,03,18,07,56,2.60
2008,03,18,07,57,2.60
2008,03,18,07,58,2.60
2008,03,18,08,00,2.60
2008,03,18,08,01,2.60
2008,03,18,08,02,2.60
2008,03,18,08,03,2.60
2008,03,18,08,04,2.60
2008,03,18,08,05,2.60
2008,03,18,08,06,2.60
2008,03,18,08,07,2.60
2008,03,18,08,08,2.60
2008,03,18,08,09,2.60
2008,03,18,08,10,2.70
2008,03,18,08,11,2.70
2008,03,18,08,12,2.70
2008,03,18,08,13,2.70
2008,03,18,08,14,2.70
2008,03,18,08,15,2.70
2008,03,18,08,16,2.70
2008,03,18,08,17,2.70
2008,03,18,08,18,2.70
2008,03,18,08,19,2.70
2008,03,18,08,20,2.70
2008,03,18,08,21,2.70
2008,03,18,08,22,2.70
2008,03,18,08,23,2.70
2008,03,18,08,24,2.70
2008,03,18,08,25,2.70
2008,03,18,08,26,2.70
2008,03,18,08,27,2.70
2008,03,18,08,29,2.70
2008,03,18,08,30,2.80
2008,03,18,08,31,2.70
2008,03,18,08,32,2.80
2008,03,18,08,33,2.80
2008,03,18,08,34,2.80
2008,03,18,08,35,2.80
2008,03,18,08,36,2.80
2008,03,18,08,37,2.80
2008,03,18,08,38,2.80
2008,03,18,08,39,2.80
2008,03,18,08,40,2.80
2008,03,18,08,41,2.90
2008,03,18,08,42,2.90
2008,03,18,08,43,2.90
2008,03,18,08,45,2.90
2008,03,18,08,46,2.90
2008,03,18,08,47,2.90
2008,03,18,08,48,3.00
2008,03,18,08,49,3.00
2008,03,18,08,50,3.10
2008,03,18,08,51,3.10
2008,03,18,08,52,3.10
2008,03,18,08,53,3.10
2008,03,18,08,54,3.20
2008,03,18,08,56,3.20
2008,03,18,08,57,3.20
2008,03,18,08,58,3.30
2008,03,18,08,59,3.30
2008,03,18,09,00,3.30
2008,03,18,09,01,3.40
2008,03,18,09,02,3.40
2008,03,18,09,03,3.40
2008,03,18,09,04,3.40
2008,03,18,09,05,3.50
2008,03,18,09,06,3.60
2008,03,18,09,07,3.60
2008,03,18,09,08,3.60
2008,03,18,09,09,3.60
2008,03,18,09,10,3.70
2008,03,18,09,11,3.70
2008,03,18,09,12,3.70
2008,03,18,09,13,3.80
2008,03,18,09,15,3.80
2008,03,18,09,16,3.80
2008,03,18,09,17,3.80
2008,03,18,09,18,3.90
2008,03,18,09,19,3.90
2008,03,18,09,20,3.90
2008,03,18,09,21,3.90
2008,03,18,09,22,3.90
2008,03,18,09,23,3.90
2008,03,18,09,24,3.90
2008,03,18,09,25,3.90
2008,03,18,09,26,4.00
2008,03,18,09,27,4.00
2008,03,18,09,28,4.00
2008,03,18,09,30,4.10
2008,03,18,09,31,4.10
2008,03,18,09,32,4.10
2008,03,18,09,33,4.10
2008,03,18,09,34,4.10
2008,03,18,09,35,4.20
2008,03,18,09,36,4.20
2008,03,18,09,38,4.30
2008,03,18,09,39,4.30
2008,03,18,09,40,4.30
2008,03,18,09,41,4.30
2008,03,18,09,42,4.40
2008,03,18,09,43,4.40
2008,03,18,09,45,4.40
2008,03,18,09,46,4.50
2008,03,18,09,47,4.50
2008,03,18,09,48,4.50
2008,03,18,09,49,4.50
2008,03,18,09,50,4.60
2008,03,18,09,51,4.60
2008,03,18,09,52,4.60
2008,03,18,09,53,4.60
2008,03,18,09,54,4.60
2008,03,18,09,55,4.60
2008,03,18,09,56,4.60
2008,03,18,09,57,4.60
2008,03,18,09,58,4.60
2008,03,18,09,59,4.60
2008,03,18,10,00,4.70
2008,03,18,10,01,4.70
2008,03,18,10,02,4.70
2008,03,18,10,03,4.70
2008,03,18,10,05,4.70
2008,03,18,10,06,4.70
2008,03,18,10,07,4.70
2008,03,18,10,08,4.70
2008,03,18,10,09,4.80
2008,03,18,10,10,4.80
2008,03,18,10,11,4.80
2008,03,18,10,12,4.80
2008,03,18,10,13,4.80
2008,03,18,10,15,4.90
2008,03,18,10,16,5.00
2008,03,18,10,17,5.00
2008,03,18,10,18,5.10
2008,03,18,10,19,5.10
2008,03,18,10,20,5.10
2008,03,18,10,21,5.10
2008,03,18,10,22,5.10
2008,03,18,10,23,5.10
2008,03,18,10,24,5.20
2008,03,18,10,25,5.20
2008,03,18,10,26,5.20
2008,03,18,10,27,5.20
2008,03,18,10,29,5.30
2008,03,18,10,30,5.30
2008,03,18,10,32,5.30
2008,03,18,10,33,5.30
2008,03,18,10,34,5.40
2008,03,18,10,35,5.40
2008,03,18,10,36,5.40
2008,03,18,10,37,5.40
2008,03,18,10,38,5.40
2008,03,18,10,39,5.40
2008,03,18,10,40,5.40
2008,03,18,10,41,5.40
2008,03,18,10,42,5.50
2008,03,18,10,43,5.60
2008,03,18,10,45,5.60
2008,03,18,10,46,5.70
2008,03,18,10,47,5.70
2008,03,18,10,48,5.70
2008,03,18,10,49,5.70
2008,03,18,10,50,5.80
2008,03,18,10,51,5.80
2008,03,18,10,52,5.80
2008,03,18,10,53,5.80
2008,03,18,10,54,5.80
2008,03,18,10,55,5.80
2008,03,18,10,56,5.80
2008,03,18,10,57,5.80
2008,03,18,10,58,5.90
2008,03,18,10,59,5.90
2008,03,18,11,00,5.90
2008,03,18,11,02,5.90
2008,03,18,11,04,6.10
2008,03,18,11,06,6.10
2008,03,18,11,08,6.20
2008,03,18,11,09,6.20
2008,03,18,11,12,6.30
2008,03,18,11,14,6.40
2008,03,18,11,15,6.40
2008,03,18,11,16,6.40
2008,03,18,11,17,6.40
2008,03,18,11,18,6.50
2008,03,18,11,21,6.50
2008,03,18,11,23,6.50
2008,03,18,11,24,6.50
2008,03,18,11,26,6.60
2008,03,18,11,27,6.60
2008,03,18,11,28,6.70
2008,03,18,11,29,6.70
2008,03,18,11,30,6.70
2008,03,18,11,31,6.80
2008,03,18,11,32,6.80
2008,03,18,11,33,6.80
2008,03,18,11,34,6.80
2008,03,18,11,35,6.80
2008,03,18,11,36,6.80
2008,03,18,11,37,6.80
2008,03,18,11,38,6.80
2008,03,18,11,39,6.80
2008,03,18,11,40,6.80
2008,03,18,11,41,6.80
2008,03,18,11,42,6.80
2008,03,18,11,43,6.90
2008,03,18,11,45,6.90
2008,03,18,11,46,6.90
2008,03,18,11,47,7.00
2008,03,18,11,48,7.00
2008,03,18,11,49,7.00
2008,03,18,11,50,7.00
2008,03,18,11,51,7.00
2008,03,18,11,53,6.90
2008,03,18,11,54,6.90
2008,03,18,11,55,6.90
2008,03,18,11,56,6.90
2008,03,18,11,57,6.90
2008,03,18,11,59,6.90
2008,03,18,12,00,6.90
2008,03,18,12,01,6.90
2008,03,18,12,02,6.90
2008,03,18,12,03,6.80
2008,03,18,12,04,6.70
2008,03,18,12,05,6.70
2008,03,18,12,06,6.60
2008,03,18,12,07,6.60
2008,03,18,12,08,6.60
2008,03,18,12,09,6.60
2008,03,18,12,10,6.60
2008,03,18,12,11,6.60
2008,03,18,12,12,6.60
2008,03,18,12,13,6.60
2008,03,18,12,14,6.60
2008,03,18,12,15,6.60
2008,03,18,12,16,6.60
2008,03,18,12,17,6.60
2008,03,18,12,18,6.70
2008,03,18,12,19,6.60
2008,03,18,12,20,6.70
2008,03,18,12,21,6.70
2008,03,18,12,22,6.70
2008,03,18,12,23,6.70
2008,03,18,12,24,6.70
2008,03,18,12,25,6.70
2008,03,18,12,26,6.70
2008,03,18,12,27,6.80
2008,03,18,12,28,6.80
2008,03,18,12,29,6.80
2008,03,18,12,30,6.80
2008,03,18,12,31,6.90
2008,03,18,12,32,6.90
2008,03,18,12,33,7.00
2008,03,18,12,34,7.10
2008,03,18,12,35,7.10
2008,03,18,12,36,7.10
2008,03,18,12,37,7.20
2008,03,18,12,38,7.20
2008,03,18,12,39,7.20
2008,03,18,12,40,7.30
2008,03,18,12,41,7.30
2008,03,18,12,42,7.40
2008,03,18,12,43,7.40
2008,03,18,12,45,7.50
2008,03,18,12,46,7.60
2008,03,18,12,47,7.60
2008,03,18,12,48,7.70
2008,03,18,12,49,7.70
2008,03,18,12,50,7.80
2008,03,18,12,51,7.80
2008,03,18,12,52,7.90
2008,03,18,12,53,8.00
2008,03,18,12,54,8.10
2008,03,18,12,55,8.20
2008,03,18,12,56,8.20
2008,03,18,12,57,8.20
2008,03,18,12,58,8.30
2008,03,18,12,59,8.30
2008,03,18,13,00,8.30
2008,03,18,13,01,8.30
2008,03,18,13,02,8.30
2008,03,18,13,03,8.30
2008,03,18,13,04,8.40
2008,03,18,13,05,8.40
2008,03,18,13,06,8.40
2008,03,18,13,07,8.50
2008,03,18,13,08,8.50
2008,03,18,13,09,8.60
2008,03,18,13,10,8.60
2008,03,18,13,11,8.60
2008,03,18,13,12,8.60
2008,03,18,13,13,8.60
2008,03,18,13,14,8.60
2008,03,18,13,15,8.70
2008,03,18,13,17,8.70
2008,03,18,13,18,8.70
2008,03,18,13,19,8.70
2008,03,18,13,20,8.70
2008,03,18,13,21,8.70
2008,03,18,13,22,8.70
2008,03,18,13,23,8.70
2008,03,18,13,24,8.70
2008,03,18,13,25,8.70
2008,03,18,13,26,8.70
2008,03,18,13,27,8.70
2008,03,18,13,28,8.70
2008,03,18,13,29,8.70
2008,03,18,13,30,8.70
2008,03,18,13,31,8.70
2008,03,18,13,32,8.70
2008,03,18,13,33,8.80
2008,03,18,13,34,8.80
2008,03,18,13,35,8.80
2008,03,18,13,36,8.80
2008,03,18,13,37,8.80
2008,03,18,13,38,8.80
2008,03,18,13,40,8.80
2008,03,18,13,41,8.80
2008,03,18,13,42,8.80
2008,03,18,13,43,8.80
2008,03,18,13,45,8.90
2008,03,18,13,47,8.90
2008,03,18,13,48,8.90
2008,03,18,13,49,9.00
2008,03,18,13,52,9.10
2008,03,18,13,53,9.10
2008,03,18,13,54,9.10
2008,03,18,13,55,9.10
2008,03,18,13,56,9.10
2008,03,18,13,57,9.10
2008,03,18,13,58,9.10
2008,03,18,13,59,9.10
2008,03,18,14,00,9.10
2008,03,18,14,02,9.20
2008,03,18,14,05,9.20
2008,03,18,14,06,9.20
2008,03,18,14,07,9.20
2008,03,18,14,08,9.20
2008,03,18,14,09,9.20
2008,03,18,14,11,9.20
2008,03,18,14,12,9.20
2008,03,18,14,13,9.20
2008,03,18,14,15,9.20
2008,03,18,14,16,9.20
2008,03,18,14,17,9.20
2008,03,18,14,18,9.20
2008,03,18,14,19,9.20
2008,03,18,14,20,9.20
2008,03,18,14,22,9.20
2008,03,18,14,23,9.20
2008,03,18,14,24,9.20
2008,03,18,14,25,9.20
2008,03,18,14,26,9.20
2008,03,18,14,27,9.20
2008,03,18,14,28,9.20
2008,03,18,14,29,9.10
2008,03,18,14,30,9.10
2008,03,18,14,31,9.10
2008,03,18,14,32,9.10
2008,03,18,14,33,9.20
2008,03,18,14,34,9.20
2008,03,18,14,35,9.20
2008,03,18,14,36,9.30
2008,03,18,14,37,9.30
2008,03,18,14,38,9.40
2008,03,18,14,40,9.40
2008,03,18,14,41,9.60
2008,03,18,14,42,9.60
2008,03,18,14,43,9.60
2008,03,18,14,45,9.70
2008,03,18,14,46,9.70
2008,03,18,14,47,9.70
2008,03,18,14,48,9.60
2008,03,18,14,49,9.60
2008,03,18,14,50,9.60
2008,03,18,14,51,9.60
2008,03,18,14,52,9.50
2008,03,18,14,53,9.40
2008,03,18,14,54,9.40
2008,03,18,14,55,9.40
2008,03,18,14,56,9.30
2008,03,18,14,57,9.30
2008,03,18,14,58,9.20
2008,03,18,14,59,9.20
2008,03,18,15,00,9.20
2008,03,18,15,01,9.20
2008,03,18,15,02,9.10
2008,03,18,15,03,9.10
2008,03,18,15,04,9.10
2008,03,18,15,05,9.10
2008,03,18,15,06,9.10
2008,03,18,15,07,9.10
2008,03,18,15,08,9.10
2008,03,18,15,09,9.10
2008,03,18,15,10,9.10
2008,03,18,15,11,9.10
2008,03,18,15,12,9.10
2008,03,18,15,13,9.10
2008,03,18,15,14,9.10
2008,03,18,15,15,9.10
2008,03,18,15,16,9.10
2008,03,18,15,17,9.10
2008,03,18,15,18,9.10
2008,03,18,15,19,9.10
2008,03,18,15,20,9.10
2008,03,18,15,21,9.10
2008,03,18,15,22,9.10
2008,03,18,15,23,9.10
2008,03,18,15,24,9.10
2008,03,18,15,25,9.10
2008,03,18,15,26,9.10
2008,03,18,15,27,9.10
2008,03,18,15,28,9.10
2008,03,18,15,29,9.10
2008,03,18,15,30,9.10
2008,03,18,15,31,9.10
2008,03,18,15,32,9.10
2008,03,18,15,33,9.10
2008,03,18,15,34,9.10
2008,03,18,15,35,9.10
2008,03,18,15,36,9.10
2008,03,18,15,37,9.10
2008,03,18,15,38,9.10
2008,03,18,15,39,9.10
2008,03,18,15,41,9.10
2008,03,18,15,42,9.10
2008,03,18,15,43,9.20
2008,03,18,15,45,9.10
2008,03,18,15,46,9.20
2008,03,18,15,47,9.20
2008,03,18,15,48,9.20
2008,03,18,15,49,9.20
2008,03,18,15,50,9.10
2008,03,18,15,51,9.10
2008,03,18,15,52,9.10
2008,03,18,15,53,9.10
2008,03,18,15,54,9.10
2008,03,18,15,55,9.00
2008,03,18,15,56,9.00
2008,03,18,15,57,9.00
2008,03,18,15,58,8.90
2008,03,18,15,59,8.90
2008,03,18,16,00,8.90
2008,03,18,16,01,8.80
2008,03,18,16,02,8.80
2008,03,18,16,03,8.70
2008,03,18,16,04,8.70
2008,03,18,16,05,8.70
2008,03,18,16,06,8.60
2008,03,18,16,07,8.60
2008,03,18,16,08,8.60
2008,03,18,16,09,8.50
2008,03,18,16,10,8.40
2008,03,18,16,11,8.40
2008,03,18,16,12,8.40
2008,03,18,16,14,8.30
2008,03,18,16,15,8.30
2008,03,18,16,16,8.30
2008,03,18,16,17,8.20
2008,03,18,16,18,8.20
2008,03,18,16,19,8.20
2008,03,18,16,20,8.20
2008,03,18,16,21,8.10
2008,03,18,16,22,8.10
2008,03,18,16,23,8.10
2008,03,18,16,24,8.10
2008,03,18,16,25,8.20
2008,03,18,16,26,8.20
2008,03,18,16,27,8.20
2008,03,18,16,28,8.20
2008,03,18,16,29,8.20
2008,03,18,16,30,8.20
2008,03,18,16,31,8.30
2008,03,18,16,32,8.30
2008,03,18,16,33,8.30
2008,03,18,16,35,8.30
2008,03,18,16,36,8.30
2008,03,18,16,37,8.30
2008,03,18,16,38,8.30
2008,03,18,16,39,8.30
2008,03,18,16,40,8.30
2008,03,18,16,41,8.30
2008,03,18,16,42,8.30
2008,03,18,16,43,8.30
2008,03,18,16,44,8.30
2008,03,18,16,45,8.30
2008,03,18,16,46,8.30
2008,03,18,16,47,8.20
2008,03,18,16,48,8.20
2008,03,18,16,49,8.20
2008,03,18,16,50,8.30
2008,03,18,16,51,8.30
2008,03,18,16,52,8.30
2008,03,18,16,53,8.30
2008,03,18,16,54,8.30
2008,03,18,16,55,8.30
2008,03,18,16,56,8.30
2008,03,18,16,57,8.30
2008,03,18,16,58,8.30
2008,03,18,16,59,8.20
2008,03,18,17,00,8.20
2008,03,18,17,01,8.20
2008,03,18,17,02,8.20
2008,03,18,17,03,8.20
2008,03,18,17,04,8.20
2008,03,18,17,05,8.20
2008,03,18,17,06,8.10
2008,03,18,17,07,8.10
2008,03,18,17,08,8.10
2008,03,18,17,09,8.10
2008,03,18,17,10,8.10
2008,03,18,17,11,8.10
2008,03,18,17,12,8.10
2008,03,18,17,13,8.10
2008,03,18,17,14,8.10
2008,03,18,17,15,8.10
2008,03,18,17,16,8.10
2008,03,18,17,17,8.20
2008,03,18,17,18,8.20
2008,03,18,17,19,8.20
2008,03,18,17,20,8.20
2008,03,18,17,21,8.20
2008,03,18,17,22,8.20
2008,03,18,17,23,8.20
2008,03,18,17,24,8.20
2008,03,18,17,25,8.20
2008,03,18,17,26,8.10
2008,03,18,17,27,8.10
2008,03,18,17,28,8.10
2008,03,18,17,29,8.10
2008,03,18,17,30,8.00
2008,03,18,17,31,8.00
2008,03,18,17,32,8.00
2008,03,18,17,33,8.00
2008,03,18,17,34,8.00
2008,03,18,17,36,8.00
2008,03,18,17,37,8.00
2008,03,18,17,38,8.10
2008,03,18,17,39,8.10
2008,03,18,17,40,8.10
2008,03,18,17,41,8.10
2008,03,18,17,42,8.10
2008,03,18,17,43,8.10
2008,03,18,17,44,8.10
2008,03,18,17,45,8.10
2008,03,18,17,46,8.10
2008,03,18,17,47,8.10
2008,03,18,17,48,8.10
2008,03,18,17,49,8.20
2008,03,18,17,50,8.20
2008,03,18,17,51,8.20
2008,03,18,17,52,8.20
2008,03,18,17,53,8.20
2008,03,18,17,54,8.20
2008,03,18,17,55,8.20
2008,03,18,17,56,8.20
2008,03,18,17,57,8.20
2008,03,18,17,58,8.20
2008,03,18,17,59,8.20
2008,03,18,18,00,8.20
2008,03,18,18,01,8.10
2008,03,18,18,02,8.10
2008,03,18,18,03,8.10
2008,03,18,18,04,8.10
2008,03,18,18,05,8.10
2008,03,18,18,06,8.10
2008,03,18,18,07,8.10
2008,03,18,18,08,8.10
2008,03,18,18,09,8.10
2008,03,18,18,10,8.10
2008,03,18,18,11,8.10
2008,03,18,18,12,8.00
2008,03,18,18,13,8.00
2008,03,18,18,14,8.00
2008,03,18,18,15,7.90
2008,03,18,18,16,7.90
2008,03,18,18,17,7.90
2008,03,18,18,18,7.90
2008,03,18,18,19,7.80
2008,03,18,18,20,7.80
2008,03,18,18,21,7.80
2008,03,18,18,22,7.70
2008,03,18,18,23,7.70
2008,03,18,18,24,7.70
2008,03,18,18,25,7.60
2008,03,18,18,26,7.60
2008,03,18,18,27,7.60
2008,03,18,18,28,7.50
2008,03,18,18,29,7.40
2008,03,18,18,30,7.40
2008,03,18,18,31,7.40
2008,03,18,18,32,7.30
2008,03,18,18,33,7.20
2008,03,18,18,34,7.20
2008,03,18,18,35,7.20
2008,03,18,18,36,7.10
2008,03,18,18,37,7.00
2008,03,18,18,38,7.00
2008,03,18,18,39,6.90
2008,03,18,18,40,6.80
2008,03,18,18,41,6.80
2008,03,18,18,42,6.80
2008,03,18,18,43,6.70
2008,03,18,18,44,6.70
2008,03,18,18,45,6.70
2008,03,18,18,46,6.60
2008,03,18,18,47,6.60
2008,03,18,18,48,6.60
2008,03,18,18,49,6.50
2008,03,18,18,50,6.50
2008,03,18,18,51,6.40
2008,03,18,18,52,6.40
2008,03,18,18,53,6.40
2008,03,18,18,54,6.30
2008,03,18,18,55,6.30
2008,03,18,18,56,6.30
2008,03,18,18,57,6.30
2008,03,18,18,58,6.30
2008,03,18,18,59,6.20
2008,03,18,19,00,6.20
2008,03,18,19,01,6.20
2008,03,18,19,02,6.20
2008,03,18,19,03,6.20
2008,03,18,19,04,6.20
2008,03,18,19,05,6.20
2008,03,18,19,06,6.10
2008,03,18,19,08,6.10
2008,03,18,19,09,6.10
2008,03,18,19,10,6.10
2008,03,18,19,11,6.10
2008,03,18,19,12,6.00
2008,03,18,19,13,6.00
2008,03,18,19,14,6.00
2008,03,18,19,15,6.00
2008,03,18,19,16,6.00
2008,03,18,19,17,6.00
2008,03,18,19,18,6.00